Wetbulb
34.31 34.39 34.57 35.34 35.11 34.60 32.11 34.93 31.99 35.51 34.29 38.18 40.26 42.08 44.79 46.13 44.75 43.59 43.02 42.94 43.57 44.72 45.39 45.69 45.69 46.01 46.28 46.19 45.64 45.23 44.21 44.28 44.81 45.22 45.56 45.72 45.71 45.77 45.94 45.92 46.02 46.28 45.80 46.17
31.74 32.31 31.99 30.39 33.98 34.39 35.07 35.30 35.16 35.19 34.20 41.72 42.91 43.00 41.69 42.18 43.08 42.58 42.64 42.70 43.08 43.80 44.14 44.29 45.26 45.18 44.88 44.61 44.28 44.03 43.56 43.56 44.14 44.07 44.20 44.30 44.56 44.40 44.37 44.80 45.22 45.07 45.09 45.44
30.05 31.72 32.33 30.51 34.81 35.20 34.39 35.50 35.96 33.10 38.90 40.72 40.04 39.97 40.65 41.14 41.67 41.27 42.26 42.46 43.47 43.86 44.20 44.61 44.69 44.53 43.61 43.45 43.82 43.37 43.21 43.46 43.13 43.10 42.81 43.21 43.29 43.16 43.28 43.55 43.93 43.97 44.49 45.14
30.80 30.78 25.17 35.39 37.23 37.27 35.80 37.26 37.70 37.64 39.19 40.24 39.30 40.64 41.13 41.88 41.14 40.91 41.83 42.93 43.55 44.19 44.15 44.70 44.49 43.82 43.26 43.20 42.89 42.46 42.40 42.32 42.59 42.30 41.93 42.37 42.21 41.92 42.16 42.49 42.33 42.56 42.96 43.35
29.41 28.63 33.34 37.00 33.31 33.98 33.69 35.24 37.67 37.34 38.46 38.63 39.16 39.34 39.67 41.21 42.64 43.30 43.42 43.83 43.87 44.42 43.95 43.84 43.06 42.63 41.76 41.90 42.04 41.72 41.44 41.51 41.77 41.72 41.24 41.38 41.12 41.24 41.49 41.22 41.37 41.66 41.88 41.95
28.92 25.65 25.32 34.03 35.33 37.21 36.69 32.45 36.77 37.01 37.44 37.90 39.00 36.69 38.35 41.32 42.34 43.03 43.38 43.53 43.37 44.00 43.19 42.41 42.33 41.62 40.74 41.13 41.01 40.73 40.83 40.95 41.39 41.30 40.78 40.44 40.67 40.62 40.97 41.06 40.64 41.09 41.02 41.80
31.01 28.33 31.51 37.64 37.24 37.68 29.80 32.61 37.38 38.03 38.53 38.60 38.30 39.85 41.35 42.83 43.30 43.21 43.00 42.47 43.03 42.73 41.61 41.26 41.21 40.75 39.87 40.45 40.25 40.87 40.52 40.90 40.93 41.02 40.49 40.44 40.47 40.95 40.59 40.81 40.77 41.40 41.07 41.96
30.53 27.65 25.64 37.89 36.44 33.74 37.41 39.16 39.15 39.71 39.91 39.25 40.62 41.37 41.92 42.54 42.51 42.58 41.74 41.63 41.27 40.23 39.95 40.19 40.13 39.32 38.76 38.63 40.43 40.02 39.46 39.02 39.78 40.34 39.87 39.46 40.29 40.94 40.80 40.78 40.47 40.73 40.22 40.81
33.79 33.76 38.10 38.83 38.62 40.66 39.13 38.60 40.49 40.33 41.05 40.77 40.32 40.52 41.60 40.92 41.83 41.80 41.03 40.55 40.45 38.80 38.27 39.30 39.26 38.67 37.33 38.69 39.20 38.62 38.10 37.88 38.58 39.68 39.96 40.37 40.21 40.46 40.31 40.76 40.15 39.91 39.32 38.67
32.44 37.55 38.26 39.52 39.63 39.99 40.23 39.89 40.83 41.66 41.17 41.60 40.71 41.87 41.61 41.73 40.77 40.04 39.63 39.22 38.56 37.68 37.47 37.49 38.78 38.13 38.03 38.35 38.46 37.53 36.91 36.94 37.47 37.49 38.50 39.92 40.62 40.29 39.86 40.24 40.46 39.50 38.96 38.80
34.26 36.86 38.36 39.90 40.39 40.03 40.41 41.28 40.92 42.08 41.94 40.66 39.15 39.22 39.42 39.03 39.08 38.49 38.44 37.80 37.42 36.95 36.61 36.62 37.82 37.71 38.52 37.80 37.66 36.23 36.42 36.37 36.38 36.83 37.14 37.70 39.20 40.06 40.45 41.34 41.07 40.06 39.84 39.79
32.20 38.69 37.38 38.11 40.01 38.97 37.93 36.62 36.63 36.61 37.43 38.17 36.57 36.93 37.06 37.24 38.23 37.14 36.64 37.12 36.50 36.22 35.89 36.38 36.82 36.86 37.56 37.70 37.09 35.79 34.91 35.39 35.73 35.52 36.22 36.83 37.45 38.29 40.38 39.39 40.30 40.46 40.31 40.29
36.63 38.23 37.94 38.88 36.94 37.04 36.59 36.64 37.36 37.12 37.55 37.09 38.03 36.86 36.37 36.18 36.91 37.00 37.17 36.42 35.44 35.41 35.79 35.70 35.49 35.47 36.66 36.68 36.38 35.11 34.38 34.69 35.04 34.95 35.23 35.39 35.96 36.30 36.09 39.16 40.32 40.15 40.21 40.39
36.11 35.45 35.53 34.71 34.81 35.60 35.90 36.37 36.52 36.51 37.13 37.32 37.26 37.69 37.15 36.58 36.63 35.69 35.20 35.72 35.63 35.34 35.21 35.26 34.81 34.50 35.90 35.91 35.25 34.71 34.66 35.03 34.25 34.82 35.25 35.25 35.42 35.52 35.78 35.43 35.73 36.63 39.32 40.57
34.68 35.42 35.03 35.86 35.48 33.71 34.50 34.31 32.46 32.61 33.31 33.46 34.59 34.47 34.79 33.97 33.94 34.10 35.05 35.04 34.37 34.10 34.15 34.27 33.87 34.32 36.21 35.86 34.37 34.04 33.94 34.03 34.47 34.71 35.17 35.24 35.36 35.73 35.51 35.34 34.92 35.20 36.40 37.35
33.58 33.38 33.47 31.78 31.52 31.89 32.21 32.12 30.77 31.30 32.05 32.17 31.90 32.12 32.57 32.77 32.79 33.11 33.76 34.10 32.15 32.16 33.46 33.35 33.30 34.72 35.49 35.16 34.39 34.35 34.11 34.33 34.03 34.20 34.94 34.61 34.95 34.73 34.62 34.48 34.47 34.58 34.92 35.55
29.60 28.43 29.73 29.72 30.68 31.58 31.62 31.95 31.17 30.87 30.63 30.40 30.89 31.86 31.60 31.54 31.62 31.59 32.33 33.23 32.99 32.63 33.45 33.20 33.31 34.93 35.11 34.56 33.96 33.66 33.86 33.68 34.03 34.31 34.32 34.23 34.41 34.01 34.26 34.48 34.30 34.10 34.32 36.34
33.63 34.80 33.97 32.76 31.79 31.12 30.87 31.37 31.38 31.06 30.51 31.30 31.34 31.02 30.36 29.97 29.74 30.90 31.85 32.57 32.11 31.79 32.91 33.68 33.90 34.04 33.49 33.84 33.82 33.86 33.80 33.55 33.57 33.30 33.79 33.83 33.67 33.98 33.95 33.58 32.36 32.08 33.16 35.37
32.98 31.73 32.21 31.81 31.92 31.56 31.26 31.04 31.01 31.13 31.30 31.08 30.52 30.08 30.70 30.67 30.91 31.09 31.53 30.52 29.95 29.81 31.82 34.11 33.59 32.95 32.78 33.99 34.08 34.17 33.57 32.74 32.69 33.09 33.47 33.48 33.41 33.60 33.51 33.61 33.63 33.98 34.32 33.74
31.80 32.62 32.60 31.95 32.56 32.02 31.37 31.95 31.29 30.70 31.39 31.36 30.42 29.42 28.88 29.92 30.80 30.48 30.53 29.42 30.78 31.96 33.36 33.21 33.11 32.73 32.82 33.14 33.29 32.99 32.40 32.11 32.17 32.66 32.78 32.38 31.52 30.93 31.18 31.43 30.74 30.24 30.88 31.41
31.84 32.41 32.39 32.34 31.94 32.61 32.29 32.20 31.15 29.77 30.76 30.57 28.95 28.52 28.98 30.01 30.60 30.31 28.80 28.48 31.25 33.24 33.24 32.66 32.41 32.76 33.41 33.12 32.81 32.28 32.09 31.67 30.73 29.93 29.59 29.31 29.14 29.12 29.12 29.36 29.57 29.73 30.04 30.43
31.27 30.70 30.56 30.44 30.11 30.00 30.97 31.15 30.69 29.88 29.04 28.55 28.72 28.95 28.60 28.29 29.03 29.23 30.24 29.29 31.42 33.03 32.22 32.19 32.72 32.70 32.55 32.78 33.05 32.54 31.56 30.76 30.65 30.33 29.98 29.97 29.62 29.25 29.17 29.36 29.39 30.01 29.88 29.90
30.08 29.82 29.65 29.28 29.05 29.36 30.10 29.86 29.60 29.10 28.14 28.12 27.84 27.91 27.87 28.51 29.10 27.56 26.60 31.35 32.19 32.13 31.94 31.99 32.43 32.54 32.95 33.22 32.85 31.86 31.37 30.96 30.61 30.53 30.41 30.37 30.06 29.87 29.88 29.63 29.98 30.12 29.72 30.66
28.33 28.41 28.20 28.79 28.54 27.39 26.06 27.82 28.82 28.88 28.53 28.24 28.28 28.71 28.10 27.56 28.62 30.53 30.54 30.92 31.23 31.22 31.26 31.82 32.07 32.48 32.97 32.90 32.89 32.82 32.65 31.62 31.18 30.75 30.28 31.34 30.85 30.58 30.22 29.72 29.25 29.62 29.83 30.89
28.03 27.69 27.50 26.41 25.50 25.81 26.96 27.47 27.16 27.01 27.15 27.36 27.79 28.47 28.71 29.64 28.25 29.58 30.66 30.41 30.69 30.48 30.25 31.19 31.50 31.72 31.59 31.82 31.86 31.71 31.04 30.35 30.13 29.66 29.52 30.02 30.60 30.15 29.38 28.91 28.78 28.76 29.85 30.35
27.07 27.09 27.55 27.97 27.55 27.92 28.19 28.16 26.80 27.86 27.80 27.05 28.35 29.38 29.73 30.00 29.45 29.42 29.65 29.87 29.45 29.73 29.59 30.20 30.47 30.44 30.16 30.19 30.16 29.97 29.60 29.42 29.03 29.03 29.80 29.96 30.35 29.88 29.25 28.89 28.51 28.69 29.46 30.29
27.72 28.64 27.36 26.84 27.51 27.34 27.06 26.82 26.32 26.28 27.56 27.32 26.86 28.75 29.10 29.26 29.26 29.37 29.42 28.94 29.05 29.03 28.97 29.32 29.64 29.78 29.77 29.78 29.54 29.09 28.99 29.14 29.11 28.85 29.62 30.12 30.45 30.50 29.28 28.90 28.58 28.63 28.61 28.33
MSLP
1020.30 1020.43 1020.52 1019.92 1019.39 1019.31 1019.23 1018.25 1017.68 1015.01 1015.12 1013.62 1014.48 1014.68 1014.79 1015.13 1015.58 1016.00 1016.30 1016.59 1016.94 1017.21 1017.42 1017.66 1017.80 1017.86 1017.94 1018.02 1018.01 1017.97 1017.78 1017.45 1017.16 1016.98 1016.61 1016.20 1015.81 1015.54 1015.09 1014.71 1014.34 1014.01 1013.68 1013.31
1020.72 1020.68 1020.52 1019.70 1019.04 1019.05 1018.57 1018.01 1017.14 1016.54 1015.03 1014.68 1014.42 1014.97 1015.36 1015.55 1015.87 1016.10 1016.25 1016.59 1017.04 1017.35 1017.52 1017.57 1017.65 1017.77 1017.89 1017.84 1017.74 1017.83 1017.61 1017.41 1017.13 1016.88 1016.57 1016.24 1015.90 1015.41 1014.86 1014.34 1014.04 1013.72 1013.34 1013.00
1020.54 1020.63 1020.27 1019.20 1017.57 1017.57 1017.89 1017.84 1017.14 1016.16 1014.77 1015.04 1014.99 1015.39 1015.65 1015.83 1015.96 1016.04 1016.21 1016.68 1017.12 1017.38 1017.68 1017.83 1017.86 1017.92 1017.80 1017.74 1017.68 1017.59 1017.49 1017.25 1017.03 1016.80 1016.48 1016.18 1015.90 1015.40 1014.80 1014.31 1013.87 1013.30 1012.92 1012.66
1020.77 1020.54 1019.09 1017.27 1017.50 1017.46 1017.44 1016.87 1016.77 1016.22 1015.59 1015.80 1016.13 1016.21 1016.24 1016.24 1016.26 1016.34 1016.65 1017.01 1017.34 1017.67 1017.92 1018.00 1018.08 1017.95 1017.82 1017.66 1017.48 1017.42 1017.42 1017.25 1017.05 1016.80 1016.46 1016.13 1015.86 1015.39 1014.79 1014.32 1013.78 1013.36 1012.92 1012.42
1021.16 1020.14 1018.11 1016.67 1017.50 1017.63 1017.42 1016.56 1016.49 1016.38 1016.26 1016.38 1016.63 1016.58 1016.59 1017.05 1017.05 1017.08 1017.26 1017.40 1017.63 1017.81 1018.01 1018.11 1018.08 1017.99 1017.80 1017.58 1017.57 1017.52 1017.16 1017.00 1016.95 1016.78 1016.35 1015.99 1015.59 1015.37 1014.98 1014.46 1013.91 1013.33 1013.00 1012.56
1021.75 1020.51 1018.60 1017.63 1017.98 1018.21 1018.09 1017.00 1017.01 1017.07 1016.96 1017.01 1017.08 1016.54 1017.04 1017.40 1017.43 1017.49 1017.67 1017.78 1017.86 1017.93 1018.01 1017.99 1017.84 1017.90 1017.73 1017.42 1017.34 1016.99 1017.06 1017.07 1016.75 1016.39 1016.14 1015.79 1015.36 1015.08 1014.85 1014.38 1013.78 1013.39 1012.85 1012.45
1021.00 1020.37 1018.97 1017.91 1018.14 1018.34 1018.36 1018.01 1017.63 1017.56 1017.65 1017.64 1017.42 1017.55 1017.47 1017.45 1017.32 1017.49 1017.56 1017.73 1017.89 1017.92 1017.92 1017.98 1018.03 1017.93 1017.64 1017.22 1016.92 1016.85 1016.75 1016.42 1016.49 1016.16 1015.58 1015.24 1015.10 1014.87 1014.61 1014.05 1013.38 1012.94 1012.60 1012.04
1020.44 1019.95 1018.68 1017.93 1018.48 1018.67 1018.20 1017.95 1018.10 1018.09 1018.13 1018.09 1018.03 1017.88 1017.76 1017.63 1017.58 1017.61 1017.74 1017.80 1017.89 1017.77 1017.67 1017.77 1017.80 1017.74 1017.44 1016.99 1016.75 1016.66 1016.46 1016.35 1015.73 1015.72 1015.70 1015.01 1014.73 1014.60 1014.23 1013.76 1013.19 1012.71 1012.31 1011.98
1019.60 1018.32 1017.79 1017.88 1017.94 1017.98 1018.54 1018.57 1018.31 1018.25 1018.24 1018.30 1018.19 1018.04 1017.87 1017.62 1017.50 1017.48 1017.56 1017.62 1017.65 1017.62 1017.56 1017.34 1017.27 1017.29 1017.17 1016.71 1016.66 1016.64 1016.17 1015.64 1015.54 1014.99 1014.89 1014.87 1014.24 1013.96 1013.74 1013.49 1013.04 1012.59 1012.21 1011.87
1019.01 1017.58 1017.70 1017.93 1018.46 1018.59 1018.56 1018.69 1018.44 1018.25 1018.31 1018.42 1018.31 1018.04 1017.81 1017.54 1017.52 1017.51 1017.53 1017.45 1017.51 1017.52 1017.36 1017.05 1016.94 1016.94 1016.75 1016.53 1016.57 1016.50 1016.08 1015.30 1015.11 1015.04 1014.21 1014.16 1013.95 1013.52 1013.21 1012.97 1012.75 1012.28 1011.95 1011.68
1018.29 1018.26 1017.85 1017.87 1018.63 1019.08 1018.76 1018.95 1018.75 1018.61 1018.41 1018.34 1018.45 1018.37 1018.07 1017.90 1017.58 1017.59 1017.74 1017.70 1017.54 1017.42 1017.35 1017.14 1017.03 1016.71 1016.57 1016.57 1016.26 1016.04 1015.77 1015.21 1014.73 1014.56 1014.14 1013.55 1013.46 1013.04 1012.74 1012.29 1012.44 1012.05 1011.64 1011.46
1017.65 1018.08 1018.58 1018.80 1019.12 1019.33 1019.17 1018.92 1019.16 1018.84 1018.73 1018.85 1018.67 1018.51 1018.40 1017.94 1017.74 1017.54 1017.56 1017.87 1017.79 1017.40 1017.17 1016.84 1016.72 1016.41 1016.18 1016.28 1016.03 1015.77 1015.36 1014.82 1014.35 1014.15 1013.81 1013.35 1013.01 1012.52 1012.16 1012.25 1012.08 1011.87 1011.41 1011.18
1018.86 1019.17 1019.23 1019.29 1019.90 1020.09 1019.82 1019.77 1019.47 1019.28 1019.36 1019.21 1018.89 1018.74 1018.71 1018.31 1018.10 1017.55 1017.20 1017.44 1017.49 1017.11 1016.87 1016.64 1016.49 1016.14 1015.85 1015.85 1015.69 1015.50 1014.92 1014.40 1013.94 1013.60 1013.31 1012.98 1012.56 1012.17 1011.57 1010.93 1011.07 1010.97 1010.83 1010.51
1019.82 1019.80 1019.48 1020.00 1020.25 1020.62 1020.65 1020.08 1019.89 1019.77 1019.23 1019.13 1019.11 1018.70 1018.53 1018.14 1017.76 1017.68 1016.96 1016.97 1016.96 1016.94 1016.57 1016.24 1015.93 1015.57 1015.45 1015.35 1015.27 1014.94 1014.51 1014.13 1013.77 1013.14 1012.83 1012.48 1012.10 1011.74 1011.34 1010.87 1010.24 1009.75 1009.78 1009.60
1020.19 1020.24 1020.20 1020.22 1020.37 1020.31 1020.26 1019.86 1019.56 1019.49 1019.09 1018.86 1018.98 1018.76 1018.64 1018.42 1017.87 1017.37 1017.02 1016.96 1016.88 1016.60 1016.07 1015.83 1015.38 1014.88 1014.85 1014.66 1014.54 1014.14 1013.76 1013.38 1013.10 1012.72 1012.39 1012.02 1011.70 1011.30 1010.92 1010.48 1010.08 1009.56 1009.03 1008.94
1020.45 1020.41 1020.29 1020.11 1019.96 1020.03 1019.67 1019.59 1019.53 1019.38 1019.04 1018.83 1018.64 1018.53 1018.22 1018.00 1017.50 1017.01 1016.56 1016.52 1016.46 1015.83 1015.26 1015.18 1014.88 1014.37 1014.27 1014.13 1013.76 1013.28 1012.90 1012.60 1012.43 1012.01 1011.59 1011.18 1010.84 1010.57 1010.19 1009.80 1009.36 1009.00 1008.57 1008.17
1020.45 1020.39 1020.16 1019.87 1019.92 1019.52 1019.26 1019.15 1019.23 1019.04 1018.84 1018.61 1018.25 1018.00 1017.73 1017.28 1016.75 1016.25 1015.84 1015.64 1015.56 1015.15 1014.60 1014.41 1014.02 1013.80 1013.63 1013.36 1013.07 1012.63 1012.31 1011.89 1011.51 1011.18 1010.75 1010.41 1010.13 1009.81 1009.47 1009.12 1008.69 1008.34 1007.92 1007.53
1019.64 1019.47 1019.36 1019.20 1019.28 1019.21 1018.93 1018.73 1018.59 1018.28 1017.97 1017.79 1017.66 1017.39 1017.07 1016.70 1016.14 1015.50 1015.02 1014.82 1014.60 1014.13 1013.53 1013.42 1013.26 1013.03 1012.76 1012.56 1012.33 1011.93 1011.60 1011.14 1010.76 1010.39 1010.02 1009.70 1009.36 1009.06 1008.71 1008.37 1008.08 1007.67 1007.14 1006.77
1020.02 1019.71 1019.30 1019.15 1019.12 1018.93 1018.52 1018.15 1017.91 1017.63 1017.34 1017.19 1017.03 1016.71 1016.34 1015.88 1015.32 1014.78 1014.38 1014.20 1013.77 1013.14 1012.20 1012.25 1012.08 1012.15 1011.94 1011.61 1011.53 1011.22 1010.78 1010.39 1010.05 1009.67 1009.28 1008.88 1008.56 1008.22 1007.86 1007.48 1006.99 1006.60 1006.25 1005.98
1019.50 1019.30 1019.15 1018.81 1018.49 1018.32 1017.79 1017.45 1017.20 1016.89 1016.59 1016.38 1016.15 1015.93 1015.45 1014.87 1014.44 1014.08 1013.77 1013.34 1012.60 1012.25 1011.79 1011.41 1011.32 1011.16 1010.96 1010.68 1010.53 1010.33 1009.98 1009.59 1009.24 1008.87 1008.52 1008.15 1007.80 1007.41 1006.99 1006.59 1006.32 1006.01 1005.63 1005.36
1018.83 1018.71 1018.40 1018.03 1017.67 1017.37 1017.03 1016.53 1016.35 1016.01 1015.63 1015.65 1015.48 1015.01 1014.54 1013.91 1013.50 1013.32 1012.96 1012.42 1011.01 1011.08 1010.96 1010.66 1010.60 1010.26 1010.02 1009.88 1009.69 1009.40 1009.14 1008.81 1008.54 1008.26 1007.88 1007.50 1007.16 1006.79 1006.40 1005.98 1005.54 1005.20 1004.85 1004.60
1018.09 1017.84 1017.51 1017.26 1016.90 1016.39 1016.09 1015.85 1015.54 1015.14 1014.88 1014.70 1014.42 1014.08 1013.70 1013.09 1012.67 1012.26 1011.78 1011.66 1010.32 1010.21 1010.20 1009.87 1009.62 1009.42 1009.22 1009.05 1008.76 1008.37 1008.14 1007.91 1007.59 1007.25 1006.91 1006.61 1006.31 1005.91 1005.51 1005.22 1004.83 1004.52 1004.26 1004.00
1017.36 1017.09 1016.86 1016.54 1016.15 1015.72 1015.36 1014.95 1014.41 1014.25 1014.07 1013.66 1013.30 1012.96 1012.73 1012.22 1011.86 1011.46 1010.41 1010.13 1009.74 1009.47 1009.36 1009.01 1008.74 1008.53 1008.33 1008.03 1007.67 1007.41 1007.11 1006.85 1006.55 1006.24 1005.93 1005.66 1005.39 1005.11 1004.74 1004.41 1004.13 1003.84 1003.60 1003.32
1016.70 1016.40 1016.01 1015.67 1015.46 1015.02 1014.42 1013.53 1013.41 1013.25 1012.92 1012.44 1012.15 1011.94 1011.77 1011.17 1010.49 1010.32 1009.79 1009.45 1009.28 1008.88 1008.48 1008.10 1007.80 1007.62 1007.42 1006.99 1006.60 1006.33 1006.05 1005.78 1005.59 1005.35 1005.07 1004.81 1004.45 1004.16 1003.91 1003.65 1003.41 1003.25 1002.97 1002.61
1015.81 1015.34 1015.06 1014.82 1014.42 1013.74 1013.28 1012.80 1012.59 1012.31 1011.94 1011.32 1011.08 1010.82 1010.47 1010.26 1009.97 1009.03 1008.94 1008.56 1008.33 1008.08 1007.57 1007.24 1007.03 1006.75 1006.42 1006.03 1005.78 1005.48 1005.24 1005.02 1004.84 1004.65 1004.37 1004.02 1003.61 1003.29 1003.09 1002.90 1002.71 1002.52 1002.20 1001.90
1014.76 1014.38 1013.94 1013.56 1013.20 1012.65 1012.15 1011.84 1011.49 1011.12 1010.72 1010.01 1009.71 1009.48 1009.14 1008.97 1008.80 1008.44 1008.04 1007.78 1007.48 1007.19 1006.82 1006.41 1006.17 1005.95 1005.66 1005.38 1005.07 1004.84 1004.57 1004.29 1004.12 1003.86 1003.58 1003.22 1002.89 1002.60 1002.34 1002.15 1001.99 1001.77 1001.46 1001.20
1013.69 1013.39 1012.97 1012.48 1012.00 1011.66 1011.34 1010.90 1010.53 1010.00 1009.71 1009.26 1008.79 1008.57 1008.28 1008.06 1007.85 1007.61 1007.25 1006.88 1006.60 1006.27 1005.96 1005.64 1005.41 1005.20 1004.95 1004.68 1004.40 1004.19 1004.01 1003.70 1003.48 1003.25 1002.86 1002.48 1002.13 1001.87 1001.70 1001.48 1001.30 1001.11 1000.90 1000.76
Wind_Speed
6 6 6 8 11 15 14 16 10 17 12 17 10 11 12 12 13 12 9 7 7 6 2 2 3 5 5 7 8 8 9 9 9 9 9 9 9 10 10 9 9 10 10 11
3 1 4 10 14 16 17 16 18 18 28 18 14 10 11 11 11 11 12 8 7 4 3 4 5 5 6 7 7 7 8 9 9 9 10 10 11 11 10 9 10 10 10 10
3 1 5 12 10 13 7 7 10 12 11 9 9 6 8 8 9 11 9 7 7 3 4 5 5 6 7 7 7 8 8 9 9 9 10 10 10 10 10 10 9 8 8 9
3 3 5 4 3 3 10 11 12 16 17 13 11 9 7 5 7 2 5 5 2 2 4 5 6 7 7 7 7 7 8 8 8 9 10 10 10 10 10 9 9 9 9 9
4 4 10 8 2 3 4 3 2 10 11 7 5 4 3 3 2 4 2 2 3 3 5 6 6 6 7 7 7 7 7 7 8 9 10 10 10 11 10 10 9 8 9 10
1 4 5 5 3 1 3 7 3 0 2 2 3 3 4 1 1 2 1 3 5 5 5 6 6 5 6 7 7 6 7 9 8 8 9 10 10 9 8 8 9 8 9 8
9 6 8 7 3 1 4 4 1 2 2 2 2 2 3 5 7 4 3 3 5 5 7 6 6 6 8 7 8 7 8 8 9 9 8 8 9 8 8 8 8 8 8 8
5 6 10 4 4 5 5 3 4 3 0 1 6 7 9 10 10 6 5 6 5 5 6 6 6 6 9 9 9 8 8 9 9 8 8 6 7 7 7 8 8 9 9 9
8 5 3 3 4 3 3 5 6 4 7 3 6 9 12 10 10 7 6 6 5 5 7 7 6 6 9 10 9 10 10 10 10 9 8 8 7 7 6 5 6 7 7 8
4 6 10 5 3 4 4 10 11 7 3 9 13 15 15 12 10 8 7 6 5 6 8 9 7 7 9 9 9 10 11 10 9 10 9 8 6 5 5 5 6 6 7 8
12 13 17 13 5 6 9 8 9 13 13 11 8 12 11 10 9 8 7 6 5 6 7 10 9 10 9 8 8 10 11 10 10 8 9 9 9 8 7 8 7 7 7 7
13 11 7 11 8 9 7 5 6 7 9 7 4 8 8 9 8 6 7 7 7 8 8 9 10 11 10 8 8 9 10 9 8 8 8 8 8 9 11 17 17 15 16 14
5 6 9 9 1 6 6 7 7 8 9 12 11 9 8 9 9 8 7 8 9 9 9 9 10 12 9 9 9 10 10 10 8 9 8 8 8 8 10 8 14 15 16 19
2 5 6 1 2 5 6 6 7 8 7 8 9 9 10 10 9 9 9 9 9 10 11 10 11 12 10 9 10 11 12 14 10 9 8 8 9 9 8 10 10 9 9 13
1 0 1 3 5 5 6 6 6 7 8 8 8 9 10 11 12 12 12 10 10 11 12 12 12 14 11 11 10 12 10 9 9 9 8 10 9 9 9 10 9 10 9 10
5 5 6 7 7 9 8 6 7 9 11 12 12 13 12 11 12 13 13 11 10 12 14 12 13 14 12 12 13 11 11 14 13 9 9 9 8 9 9 9 10 9 8 9
7 6 9 9 11 12 11 8 8 11 12 12 14 14 13 13 13 13 13 11 11 13 14 13 14 13 12 13 13 9 9 10 15 10 9 9 9 9 9 9 9 9 10 10
12 8 8 9 9 10 11 11 11 12 11 12 14 14 15 14 15 16 15 13 13 14 14 12 13 13 14 13 12 10 9 10 10 10 9 9 10 9 9 9 11 11 11 10
11 13 13 12 13 13 14 14 14 13 13 12 13 15 15 15 16 15 15 14 15 16 16 12 13 13 13 13 13 9 10 12 11 10 10 13 11 10 10 10 11 10 10 8
14 13 14 16 16 16 16 15 15 14 15 14 15 15 16 16 14 14 14 16 17 13 15 16 14 13 13 13 15 9 11 12 12 11 10 10 11 11 11 14 12 11 10 9
13 14 16 15 15 14 14 14 13 14 16 14 14 15 15 16 16 14 14 12 18 13 12 15 11 9 8 10 11 10 10 10 11 11 11 11 11 11 11 11 11 10 10 9
12 12 14 15 14 15 14 13 14 14 14 14 15 15 15 16 15 14 15 14 14 18 10 8 8 12 11 17 9 10 11 11 9 9 9 9 9 10 11 11 11 8 9 10
13 12 12 15 15 15 14 14 15 14 15 15 15 15 13 11 10 11 13 9 10 12 9 9 14 19 21 11 9 10 11 11 10 10 10 9 9 10 9 9 9 8 10 10
13 12 14 13 12 12 15 17 14 14 14 15 15 14 12 10 10 9 11 17 20 19 11 12 14 20 21 10 10 10 10 11 11 11 11 15 10 8 8 8 8 8 11 12
13 14 13 12 13 12 13 13 12 12 13 14 14 12 14 10 11 10 9 10 17 16 11 16 19 20 11 9 9 10 10 9 8 9 9 10 10 8 8 8 8 10 9 8
14 10 11 14 12 11 10 10 10 10 10 11 10 9 9 8 9 11 10 13 12 14 11 9 9 10 9 9 10 10 10 9 10 9 11 10 9 9 8 8 8 9 8 8
11 15 10 10 10 10 9 10 10 11 11 11 12 10 10 9 10 11 14 10 10 10 9 9 8 10 9 9 9 9 9 8 11 9 9 8 7 7 8 8 8 7 7 6
Wind_Direction
247 238 236 243 211 190 199 216 230 263 268 265 286 256 249 244 242 245 241 228 219 216 226 330 321 325 326 325 325 325 316 316 316 314 311 309 308 308 307 303 299 297 294 291
260 30 257 269 260 246 241 251 255 275 275 304 292 269 276 267 268 260 255 241 206 205 246 285 308 312 315 314 319 319 312 311 315 313 313 311 310 309 305 305 306 307 301 301
237 196 291 265 279 225 208 237 236 246 261 336 321 292 288 299 293 274 257 226 193 218 281 300 305 314 312 318 320 318 315 314 312 312 311 313 312 308 307 308 306 302 304 307
289 255 230 93 175 156 223 252 228 260 270 286 294 291 275 298 290 261 149 162 184 287 287 302 311 310 319 318 314 311 307 307 312 314 313 314 312 309 312 314 311 312 309 307
276 258 317 284 134 153 199 284 226 255 288 299 301 287 69 26 64 81 59 21 329 314 305 302 307 314 308 305 311 307 306 312 317 314 311 312 311 314 314 312 311 311 310 307
216 259 270 36 80 119 215 278 49 262 32 35 317 314 46 131 348 326 291 303 315 317 306 292 306 297 292 299 305 303 316 310 305 303 302 304 308 307 305 301 303 306 305 302
233 265 278 289 199 178 258 26 355 356 37 58 54 4 305 270 271 259 281 305 307 300 302 304 297 291 287 293 290 300 295 292 294 293 290 293 300 298 299 303 304 308 306 308
185 224 265 138 117 236 25 9 320 320 228 358 326 314 312 311 298 292 298 314 307 293 293 298 290 286 289 289 296 291 292 295 289 292 295 288 289 298 305 307 314 318 320 314
218 236 74 176 268 336 352 301 302 240 216 294 309 306 308 291 281 271 281 288 280 275 285 285 278 267 281 292 304 300 296 295 297 294 284 277 278 286 294 302 313 320 320 314
265 220 267 284 263 313 336 295 301 273 281 307 297 307 298 292 279 275 279 267 262 263 271 285 293 282 277 290 297 294 290 294 297 293 296 288 275 265 269 278 293 308 315 308
263 279 286 266 338 329 320 309 294 297 294 305 328 305 300 290 286 288 278 266 259 269 283 289 299 298 300 298 303 299 299 300 301 301 299 297 282 275 269 259 258 281 285 291
268 301 294 290 305 328 324 342 338 338 329 333 319 285 287 281 290 289 286 287 286 285 282 290 298 297 304 301 297 294 296 298 298 300 300 297 296 295 247 249 264 258 257 259
285 309 290 299 151 11 336 330 325 312 303 298 308 298 291 289 289 292 288 288 287 289 291 296 297 296 302 296 296 288 284 290 293 291 288 289 290 289 297 283 238 248 259 267
311 308 272 58 320 319 291 299 304 290 286 283 282 284 278 282 292 285 280 280 285 289 294 297 293 290 298 293 292 290 288 282 281 285 284 284 285 285 283 286 296 292 267 261
17 293 239 201 235 250 252 262 282 297 308 305 312 304 305 300 296 298 301 300 296 291 287 286 286 288 299 292 282 285 287 284 282 281 277 279 283 279 277 279 274 280 294 281
194 198 201 215 225 236 249 274 281 295 307 306 303 298 293 287 285 285 287 290 286 290 295 293 287 288 289 284 285 283 280 273 271 276 275 274 272 272 274 273 273 272 274 277
183 218 224 236 241 246 247 257 266 277 286 289 288 290 289 286 285 283 282 280 272 273 279 278 277 281 279 276 276 277 283 282 275 274 269 269 270 269 269 269 271 271 272 270
221 244 241 239 254 260 265 264 268 271 273 280 286 288 286 286 283 286 286 292 287 281 274 276 268 268 275 276 275 276 274 275 276 272 272 270 267 266 264 264 265 267 268 266
249 263 269 268 267 270 270 271 270 269 277 281 285 285 287 285 281 283 287 290 283 281 284 283 270 263 271 269 269 272 271 274 274 272 269 271 268 264 263 263 264 264 265 265
261 265 271 273 274 269 271 272 269 275 282 285 285 284 283 279 279 282 284 278 271 276 280 282 283 278 276 275 274 269 271 272 272 273 274 273 273 272 268 267 267 268 269 268
262 269 271 271 275 277 274 274 278 276 279 281 278 274 273 277 278 279 278 273 275 272 272 276 272 273 274 277 277 277 276 276 276 277 277 278 281 277 277 277 277 273 269 268
258 261 267 273 272 274 274 274 272 271 272 274 272 271 273 274 277 274 260 256 272 282 279 272 271 268 273 281 278 278 280 278 269 272 268 269 268 271 274 276 275 265 267 271
264 266 270 270 269 273 280 275 271 272 273 271 272 273 272 270 274 274 278 261 258 271 272 274 274 275 279 277 273 275 271 267 265 266 267 269 270 271 267 267 269 266 267 261
270 267 265 268 271 270 269 273 276 274 266 267 265 264 266 271 268 254 260 271 272 275 270 276 280 283 284 276 270 266 268 272 277 281 281 281 275 266 261 263 263 266 267 265
270 270 274 271 264 263 269 271 276 269 270 266 265 265 256 250 251 272 270 272 274 276 278 279 283 283 278 270 270 271 272 275 279 277 275 275 272 267 262 260 260 263 259 255
272 271 271 270 266 270 271 273 268 274 272 275 274 271 269 260 251 260 268 267 267 272 271 276 275 276 274 272 273 274 277 279 280 277 278 276 272 268 266 264 260 258 258 258
273 271 274 273 264 262 260 262 271 272 269 269 275 276 274 270 265 264 265 267 267 267 267 271 272 274 275 276 276 275 278 277 281 284 282 279 276 278 273 268 263 261 259 256